Location: Unspecified
(48.2082°N, 0.0000°E)
Time: 04:18:00
(UTC+00:00)

A-11 Canister half - Pass Details

Date: 28 June 2019
Orbit: 1514 x 1685 km, 47.2° (Epoch: 22 July)

Event Time Altitude Azimuth Distance (km) Brightness Sun altitude
Rises 15:23:56 0° 290° (WNW) 4,828 12.2 43.4°
Reaches altitude 10° 15:27:22 10° 283° (WNW) 3,814 12.0 42.8°
Maximum altitude 15:35:52 37° 221° (SW) 2,252 11.2 41.4°
Drops below altitude 10° 15:44:08 10° 158° (SSE) 3,694 11.0 40.1°
Sets 15:47:25 0° 150° (SSE) 4,660 11.4 39.5°
